Location: Hylvaty SDH
(49.9612°N, 16.4057°E)
Time: 18:40:09
(UTC+02:00)

Vanguard 2 Rocket - Visible Passes

Search period start: 09 August 2020 00:00
Search period end: 19 August 2020 00:00
Orbit: 556 x 3324 km, 32.9° (Epoch: 08 August)

Date Brightness Start Highest point End Pass type
(mag) Time Alt. Az. Time Alt. Az. Time Alt. Az.
09 Aug 10.1 01:02:12 10° WSW 01:10:06 20° SW 01:10:06 20° SW visible
09 Aug 9.3 21:48:04 10° WSW 21:56:58 33° S 22:07:02 17° SE visible
10 Aug 9.9 00:01:34 10° WSW 00:11:25 24° SSW 00:12:45 24° SSW visible
10 Aug 9.2 20:49:13 10° SW 20:56:53 31° S 21:08:51 10° ESE visible
10 Aug 9.7 23:01:41 10° WSW 23:10:55 27° SSW 23:15:30 23° S visible
11 Aug 10.4 01:19:00 10° WSW 01:21:13 12° SW 01:21:13 12° SW visible
11 Aug 9.4 22:02:17 10° WSW 22:10:36 28° S 22:18:22 18° SSE visible
12 Aug 10.1 00:17:05 10° WSW 00:24:06 17° SSW 00:24:06 17° SSW visible
12 Aug 9.2 21:03:17 10° WSW 21:10:32 28° S 21:21:20 10° SE visible
12 Aug 9.9 23:16:36 10° WSW 23:24:30 20° SSW 23:27:03 19° S visible
13 Aug 9.6 22:16:53 10° WSW 22:24:17 22° SSW 22:30:06 17° SSE visible
14 Aug 9.4 21:17:39 10° WSW 21:24:16 23° S 21:33:14 11° SE visible
14 Aug 10.1 23:32:52 10° SW 23:38:06 14° SSW 23:38:58 13° SSW visible
15 Aug 9.9 22:32:15 10° SW 22:37:58 16° SSW 22:42:10 14° S visible
16 Aug 9.6 21:32:33 10° SW 21:38:02 18° SSW 21:45:21 10° SSE visible
17 Aug 9.4 20:33:24 10° SW 20:38:18 18° S 20:44:57 10° SSE visible
18 Aug 9.9 21:49:07 10° SW 21:51:49 11° SSW 21:54:54 10° S visible
